Regional Weather Roundup
Issued by NWS Little Rock, AR

Home | Current Version | Previous Version | Graphics & Text | Print | Product List | Glossary On
Versions: 1 2 3 4 5 6 7 8 9 10 11 12 13 14 15 16 17 18 19 20 21 22 23 24 25 26 27 28 29 30 31 32 33 34 35 36 37 38 39 40 41 42 43 44 45 46 47 48 49 50
000
ASUS44 KLZK 230105
RWRLZK

WEATHER ROUNDUP FOR ARKANSAS
NATIONAL WEATHER SERVICE LITTLE ROCK AR
800 PM CDT TUE AUG 22 2017

NOTE: "FAIR" INDICATES FEW OR NO CLOUDS BELOW 12,000 FEET WITH NO
SIGNIFICANT WEATHER AND/OR OBSTRUCTIONS TO VISIBILITY.

ARZ001-003-010-029-230200-
NORTHWEST ARKANSAS

CITY           SKY/WX    TMP DP  RH WIND       PRES   REMARKS
FAYETTEVILLE   CLOUDY    79  73  82 VRB3      30.04R
FORT SMITH     PTCLDY    84  76  76 CALM      29.98R HX  93
HARRISON       MOCLDY    78  72  81 CALM      30.05R
BENTONVILLE    PTCLDY    79  70  73 N6        30.07R
ROGERS         PTCLDY    77  72  84 N3        30.07R
SPRINGDALE     MOCLDY    81  72  74 N5        30.06R
$$

ARZ004-005-016-230200-
NORTH CENTRAL ARKANSAS

CITY           SKY/WX    TMP DP  RH WIND       PRES   REMARKS
FLIPPIN        CLOUDY    79  64  61 CALM      30.01R
MTN HOME       CLOUDY    75  71  87 CALM      30.02S
$$

ARZ040-041-230200-
WEST CENTRAL ARKANSAS

CITY           SKY/WX    TMP DP  RH WIND       PRES   REMARKS
MENA           NOT AVBL
MOUNT IDA      PTCLDY    79  77  94 CALM      29.99R
$$

ARZ009-017-025-026-028-230200-
NORTHEAST ARKANSAS

CITY           SKY/WX    TMP DP  RH WIND       PRES   REMARKS
CORNING        FAIR      79  75  89 NW5       29.99S
JONESBORO      CLEAR     79  73  82 N3        29.98R
NEWPORT        CLEAR     76  71  85 N7        30.00R
WALNUT RIDGE   CLEAR     79  70  73 N5        29.99R
BLYTHEVILLE    PTCLDY    76  73  91 N7        29.98S
$$

ARZ022-023-033-042-044-230200-
CENTRAL ARKANSAS

CITY           SKY/WX    TMP DP  RH WIND       PRES   REMARKS
LITTLE ROCK    CLOUDY    82  74  76 SW7       29.97R HX  88
N LITTLE ROCK    N/A     83  75  76 CALM      29.98R HX  90
JACKSONVILLE   CLOUDY    85  75  74 W6        29.97R HX  93
CONWAY           N/A     84  79  84 CALM      29.96R HX  96
SEARCY         PTCLDY    83  69  62 N7        29.99R HX  86
HOT SPRINGS    MOCLDY    81  74  79 CALM      30.00R HX  86
RUSSELLVILLE   CLEAR     80  77  90 CALM      29.97R HX  87
CLINTON        CLOUDY    81  75  83 CALM      30.00R HX  86
$$

ARZ036-230200-
EAST ARKANSAS

CITY           SKY/WX    TMP DP  RH WIND       PRES   REMARKS
WEST MEMPHIS   MOCLDY    82  70  66 N10       29.96R HX  86
$$

ARZ050-053-066-070-073-230200-
SOUTHWEST ARKANSAS

CITY           SKY/WX    TMP DP  RH WIND       PRES   REMARKS
ARKADELPHIA    FAIR      79  78  97 CALM      29.98R
CAMDEN         CLEAR     84  75  74 CALM      29.95S HX  92
TEXARKANA      CLEAR     83  76  79 CALM      29.97S HX  91
EL DORADO      CLEAR     82  77  84 CALM      29.97S HX  90
DE QUEEN       MOCLDY    80  74  81 CALM      29.97R HX  85
$$

ARZ056-057-069-230200-
SOUTHEAST ARKANSAS

CITY           SKY/WX    TMP DP  RH WIND       PRES   REMARKS
PINE BLUFF     CLEAR     82  74  76 NW6       29.97S HX  88
MONTICELLO     CLEAR     83  76  79 CALM      29.97R HX  91

$$





USA.gov is the U.S. government's official web portal to all federal, state and local government web resources and services.